This demonstration page uses our WeatherBlox Daily Observations layout. Learn more.

Left ArrowRight Arrow

Hourly Observations for October 7, 2018

Temp ( °F °C ) Dew Point ( °F °C ) Humidity (%) Winds ( mph kmh ) Pressure ( in mb ) Visibility ( mi km ) Precip ( " mm )
12:57 am 00:57 Cloudy 47 8.3 40 4.4 77 77 ESE 12 19 30.12 1020 10 16 0.00 0.00
1:30 am 01:30 Cloudy 46 8 39 4 76 76 E 13 20 30.15 1021 10 16 0.00 0.00
1:57 am 01:57 Cloudy with Light Rain 45 7.2 41 5 86 86 ESE 7 11 30.14 1021 9 14 0.00 0.03
2:42 am 02:42 Cloudy with Mist and Fog 45 7 43 6 93 93 E 12 19 30.15 1021 6 10 0.00 0.03
2:57 am 02:57 Cloudy 44 6.7 43 6.1 96 96 ENE 9 15 30.11 1020 8 13 0.00 0.03
3:22 am 03:22 Cloudy 45 7 43 6 93 93 ENE 8 13 30.15 1021 10 16 0.00 0.00
3:57 am 03:57 Cloudy with Light Rain 44 6.7 42 5.6 93 93 ENE 9 15 30.08 1019 10 16 0.00 0.03
4:57 am 04:57 Cloudy 43 6.1 42 5.6 97 97 NE 12 19 30.06 1018 10 16 0.00 0.03
5:57 am 05:57 Cloudy with Light Rain 42 5.6 41 5 96 96 ENE 14 22 30.08 1019 5 8 0.00 0.03
6:06 am 06:06 Cloudy with Light Rain 43 6 41 5 93 93 NE 13 20 30.09 1019 3 4 0.00 0.03
6:57 am 06:57 Cloudy with Mist and Fog 42 5.6 41 5 96 96 ENE 9 15 30.09 1019 3 5 0.00 0.03
7:10 am 07:10 Cloudy with Mist and Fog 43 6 41 5 93 93 ENE 9 15 30.12 1020 3 4 0.00 0.00
7:57 am 07:57 Cloudy with Light Rain 42 5.6 41 5 96 96 ENE 10 17 30.09 1019 3 5 0.04 1.02
8:57 am 08:57 Cloudy with Light Rain 42 5.6 41 5 96 96 ENE 12 19 30.10 1019 10 16 0.06 1.52
9:57 am 09:57 Cloudy 42 5.6 41 5 96 96 NE 13 20 30.11 1020 10 16 0.00 0.03
11:57 am 11:57 Cloudy with Light Rain 43 6.1 42 5.6 97 97 ENE 12 19 30.09 1019 10 16 0.00 0.03
12:57 pm 12:57 Cloudy with Mist and Fog 44 6.7 43 6.1 96 96 ENE 10 17 30.07 1018 3 5 0.00 0.03
1:14 pm 13:14 Cloudy with Light Rain 45 7 43 6 93 93 ENE 12 19 30.09 1019 2 3 0.00 0.00
1:30 pm 13:30 Cloudy with Light Rain 43 6 43 6 100 100 ENE 10 17 30.09 1019 2 3 0.00 0.03
1:57 pm 13:57 Cloudy with Light Rain 44 6.7 43 6.1 96 96 ENE 12 19 30.05 1018 3 4 0.00 0.03
2:15 pm 14:15 Cloudy with Light Rain 45 7 45 7 100 100 E 13 20 30.06 1018 6 10 0.00 0.00
2:30 pm 14:30 Cloudy with Light Rain 45 7 45 7 100 100 E 10 17 30.06 1018 3 4 0.00 0.03
2:38 pm 14:38 Cloudy with Light Rain 45 7 45 7 100 100 ESE 9 15 30.06 1018 3 5 0.00 0.03
2:57 pm 14:57 Cloudy with Mist and Fog 45 7.2 44 6.7 97 97 ENE 8 13 30.05 1018 3 5 0.00 0.03
2:59 pm 14:59 Cloudy with Mist and Fog 45 7 45 7 100 100 E 8 13 30.06 1018 3 4 0.00 0.00
3:12 pm 15:12 Cloudy with Light Rain 45 7 45 7 100 100 ENE 9 15 30.06 1018 2 2 0.00 0.03
3:36 pm 15:36 Cloudy with Light Rain 45 7 45 7 100 100 ENE 10 17 30.03 1017 3 4 0.00 0.03
3:41 pm 15:41 Cloudy with Nearby Thunderstorms 45 7 45 7 100 100 ENE 14 22 30.03 1017 3 5 0.00 0.00
3:57 pm 15:57 Cloudy with Nearby Thunderstorms 45 7.2 45 7.2 100 100 ENE 14 22 30.02 1017 6 10 0.00 0.03
4:15 pm 16:15 Cloudy with Light Rain 45 7 45 7 100 100 E 23 37 29.97 1015 9 14 0.00 0.00
4:57 pm 16:57 Cloudy with Light Rain 45 7.2 44 6.7 97 97 NE 5 7 30.03 1017 10 16 0.04 1.02
5:57 pm 17:57 Cloudy with Light Rain 46 7.8 45 7.2 96 96 NE 8 13 30.01 1016 8 13 0.01 0.25
6:29 pm 18:29 Cloudy with Mist and Fog 46 8 46 8 100 100 NE 9 15 30.03 1017 2 3 0.00 0.03
6:39 pm 18:39 Cloudy with Mist and Fog 46 8 45 7 93 93 NE 10 17 30.03 1017 1 2 0.00 0.00
6:49 pm 18:49 Cloudy with Mist and Fog 46 8 46 8 100 100 ENE 6 9 30.03 1017 1 1 0.00 0.00
6:57 pm 18:57 Cloudy with Fog 46 7.8 46 7.8 100 100 ENE 8 13 30.01 1016 1 1 0.00 0.03
7:19 pm 19:19 Cloudy with Light Rain 46 8 46 8 100 100 ENE 9 15 29.97 1015 1 2 0.00 0.00
7:30 pm 19:30 Cloudy with Light Rain 46 8 46 8 100 100 ENE 10 17 30.03 1017 2 3 0.00 0.03
7:54 pm 19:54 Cloudy with Light Rain 46 8 46 8 100 100 NE 9 15 30.03 1017 3 4 0.01 0.25
7:57 pm 19:57 Cloudy with Mist and Fog 46 7.8 46 7.8 100 100 NNE 9 15 30.01 1016 3 4 0.01 0.25
8:30 pm 20:30 Cloudy with Light Rain 46 8 45 7 93 93 NE 12 19 30.03 1017 2 3 0.00 0.03
8:57 pm 20:57 Cloudy with Light Rain 46 7.8 45 7.2 96 96 ENE 10 17 30.01 1016 2 3 0.00 0.03
9:06 pm 21:06 Cloudy with Light Rain 46 8 45 7 93 93 NE 12 19 30.03 1017 2 3 0.00 0.03
9:57 pm 21:57 Cloudy with Light Rain 46 7.8 46 7.8 100 100 NE 9 15 30.01 1016 1 2 0.00 0.03
10:33 pm 22:33 Cloudy with Light Rain 46 8 46 8 100 100 NNE 8 13 30.03 1017 3 4 0.00 0.00
10:43 pm 22:43 Cloudy with Light Rain 46 8 46 8 100 100 NNE 8 13 30.03 1017 4 6 0.00 0.00
10:57 pm 22:57 Cloudy 46 7.8 46 7.8 100 100 NNE 9 15 30.01 1016 7 11 0.00 0.03
11:57 pm 23:57 Cloudy with Mist and Fog 46 7.8 45 7.2 96 96 NE 9 15 29.99 1016 5 8 0.00 0.03

Powered by AerisWeather